"Time","Value","Approval","myLocation"
"2023-05-06 00:00",5.13134855905227,"Approved","OW489"
"2023-05-06 01:00",5.11147747988512,"Approved","OW489"
"2023-05-06 02:00",5.10507232571797,"Approved","OW489"
"2023-05-06 03:00",5.14714120155081,"Approved","OW489"
"2023-05-06 04:00",5.13279997538366,"Approved","OW489"
"2023-05-06 05:00",5.10834887321651,"Approved","OW489"
"2023-05-06 06:00",5.17368167704936,"Approved","OW489"
"2023-05-06 07:00",5.11979050688221,"Approved","OW489"
"2023-05-06 08:00",5.12110333271506,"Approved","OW489"
"2023-05-06 09:00",5.13280217454791,"Approved","OW489"
"2023-05-06 10:00",5.12037704238076,"Approved","OW489"
"2023-05-06 11:00",5.10381595221361,"Approved","OW489"
"2023-05-06 12:00",5.12192078704646,"Approved","OW489"
"2023-05-06 13:00",5.08293561087931,"Approved","OW489"
"2023-05-06 14:00",5.14185043371216,"Approved","OW489"
"2023-05-06 15:00",5.20615926454501,"Approved","OW489"
"2023-05-06 16:00",5.17133812837786,"Approved","OW489"
"2023-05-06 17:00",5.14169890021071,"Approved","OW489"
"2023-05-06 18:00",5.13117565304356,"Approved","OW489"
"2023-05-06 19:00",5.1232384218764,"Approved","OW489"
"2023-05-06 20:00",5.28190518670925,"Approved","OW489"
"2023-05-06 21:00",5.2870200095421,"Approved","OW489"
"2023-05-06 22:00",5.29165680837495,"Approved","OW489"
"2023-05-06 23:00",5.3024816202078,"Approved","OW489"
"2023-05-07 00:00",5.21558445804065,"Approved","OW489"
"2023-05-07 01:00",5.2487172608735,"Approved","OW489"
"2023-05-07 02:00",5.22113408170635,"Approved","OW489"
"2023-05-07 03:00",5.2266289275392,"Approved","OW489"
"2023-05-07 04:00",5.20566372837205,"Approved","OW489"
"2023-05-07 05:00",5.2203625702049,"Approved","OW489"
"2023-05-07 06:00",5.17215330803775,"Approved","OW489"
"2023-05-07 07:00",5.1556960988706,"Approved","OW489"
"2023-05-07 08:00",5.17358694970345,"Approved","OW489"
"2023-05-07 09:00",5.2465638165363,"Approved","OW489"
"2023-05-07 10:00",5.21516066036915,"Approved","OW489"
"2023-05-07 11:00",5.24325750420199,"Approved","OW489"
"2023-05-07 12:00",5.23047832103484,"Approved","OW489"
"2023-05-07 13:00",5.46698515286769,"Approved","OW489"
"2023-05-07 14:00",5.57028599270054,"Approved","OW489"
"2023-05-07 15:00",5.62402090653339,"Approved","OW489"
"2023-05-07 16:00",5.39213573036624,"Approved","OW489"
"2023-05-07 17:00",5.59573257419909,"Approved","OW489"
"2023-05-07 18:00",5.54829945203194,"Approved","OW489"
"2023-05-07 19:00",5.41000828186479,"Approved","OW489"
"2023-05-07 20:00",5.37402110769764,"Approved","OW489"
"2023-05-07 21:00",5.30081994953049,"Approved","OW489"
"2023-05-07 22:00",5.26138882436334,"Approved","OW489"
"2023-05-07 23:00",5.23177368219619,"Approved","OW489"
"2023-05-08 00:00",5.22723856202904,"Approved","OW489"
"2023-05-08 01:00",5.20371942386189,"Approved","OW489"
"2023-05-08 02:00",5.18157631369474,"Approved","OW489"
"2023-05-08 03:00",5.15216716352758,"Approved","OW489"
"2023-05-08 04:00",5.13567000136043,"Approved","OW489"
"2023-05-08 05:00",5.15507283819328,"Approved","OW489"
"2023-05-08 06:00",5.13837767302613,"Approved","OW489"
"2023-05-08 07:00",5.12477851185898,"Approved","OW489"
"2023-05-08 08:00",5.18603739869183,"Approved","OW489"
"2023-05-08 09:00",5.28909428852468,"Approved","OW489"
"2023-05-08 10:00",5.34193319735753,"Approved","OW489"
"2023-05-08 11:00",5.32859008719038,"Approved","OW489"
"2023-05-08 12:00",5.28834098302323,"Approved","OW489"
"2023-05-08 13:00",5.33426391085608,"Approved","OW489"
"2023-05-08 14:00",5.23923267268893,"Approved","OW489"
"2023-05-08 15:00",5.20008157152178,"Approved","OW489"
"2023-05-08 16:00",5.43117042435463,"Approved","OW489"
"2023-05-08 17:00",5.22514729018748,"Approved","OW489"
"2023-05-08 18:00",5.18914613202033,"Approved","OW489"
"2023-05-08 19:00",5.18820090985318,"Approved","OW489"
"2023-05-08 20:00",5.21166367868603,"Approved","OW489"
"2023-05-08 21:00",5.22286840051887,"Approved","OW489"
"2023-05-08 22:00",5.16640320135172,"Approved","OW489"
"2023-05-08 23:00",5.14894998818457,"Approved","OW489"
"2023-05-09 00:00",5.13655282601742,"Approved","OW489"
"2023-05-09 01:00",5.11671958985027,"Approved","OW489"
"2023-05-09 02:00",5.10682431168312,"Approved","OW489"
"2023-05-09 03:00",5.10993302851597,"Approved","OW489"
"2023-05-09 04:00",5.14606982734882,"Approved","OW489"
"2023-05-09 05:00",5.20054658018167,"Approved","OW489"
"2023-05-09 06:00",5.18893532001452,"Approved","OW489"
"2023-05-09 07:00",5.23478610184737,"Approved","OW489"
"2023-05-09 08:00",5.19489493268022,"Approved","OW489"
"2023-05-09 09:00",5.22887779251307,"Approved","OW489"
"2023-05-09 10:00",5.19026864334592,"Approved","OW489"
"2023-05-09 11:00",5.24964151417877,"Approved","OW489"
"2023-05-09 12:00",5.18129640501162,"Approved","OW489"
"2023-05-09 13:00",5.17088326084446,"Approved","OW489"
"2023-05-09 14:00",5.19393615467731,"Approved","OW489"
"2023-05-09 15:00",5.25503299851016,"Approved","OW489"
"2023-05-09 16:00",5.26997390534301,"Approved","OW489"
"2023-05-09 17:00",5.29424877417586,"Approved","OW489"
"2023-05-09 18:00",5.26386959100871,"Approved","OW489"
"2023-05-09 19:00",5.27591837584156,"Approved","OW489"
"2023-05-09 20:00",5.29548114467441,"Approved","OW489"
"2023-05-09 21:00",5.21142793150726,"Approved","OW489"
"2023-05-09 22:00",5.19121478734011,"Approved","OW489"
"2023-05-09 23:00",5.19577367417296,"Approved","OW489"
"2023-05-10 00:00",5.16365853100581,"Approved","OW489"
"2023-05-10 01:00",5.14145137983866,"Approved","OW489"
"2023-05-10 02:00",5.13313224167151,"Approved","OW489"
"2023-05-10 03:00",5.16816704250436,"Approved","OW489"
"2023-05-10 04:00",5.1563119453372,"Approved","OW489"
"2023-05-10 05:00",5.15142077517005,"Approved","OW489"
"2023-05-10 06:00",5.1368615690029,"Approved","OW489"
"2023-05-10 07:00",5.14041246583575,"Approved","OW489"
"2023-05-10 08:00",5.1927793436686,"Approved","OW489"
"2023-05-10 09:00",5.21383023950145,"Approved","OW489"
"2023-05-10 10:00",5.1791931213343,"Approved","OW489"
"2023-05-10 11:00",5.19014202016715,"Approved","OW489"
"2023-05-10 12:00",5.204870941,"Approved","OW489"
"2023-05-10 13:00",5.205,"Approved","OW489"
"2023-05-10 14:00",5.26313549895805,"Approved","OW489"
"2023-05-10 15:00",5.2915590119161,"Approved","OW489"
"2023-05-10 16:00",5.25821049287415,"Approved","OW489"
"2023-05-10 17:00",5.2016659698322,"Approved","OW489"
"2023-05-10 18:00",5.21458737179026,"Approved","OW489"
"2023-05-10 19:00",5.22132475474831,"Approved","OW489"
"2023-05-10 20:00",5.33973605470636,"Approved","OW489"
"2023-05-10 21:00",5.29485534566441,"Approved","OW489"
"2023-05-10 22:00",5.30779672462246,"Approved","OW489"
"2023-05-10 23:00",5.25294809258051,"Approved","OW489"
"2023-05-11 00:00",5.22070944853857,"Approved","OW489"
"2023-05-11 01:00",5.20372086149662,"Approved","OW489"
"2023-05-11 02:00",5.18649420445467,"Approved","OW489"
"2023-05-11 03:00",5.18104757041272,"Approved","OW489"
"2023-05-11 04:00",5.16408095837077,"Approved","OW489"
"2023-05-11 05:00",5.20144031732882,"Approved","OW489"
"2023-05-11 06:00",5.16054562328687,"Approved","OW489"
"2023-05-11 07:00",5.18078900024493,"Approved","OW489"
"2023-05-11 08:00",5.17860440920298,"Approved","OW489"
"2023-05-11 09:00",5.21641182616103,"Approved","OW489"
"2023-05-11 10:00",5.21731325111908,"Approved","OW489"
"2023-05-11 11:00",5.20178870507713,"Approved","OW489"
"2023-05-11 12:00",5.18828014103518,"Approved","OW489"
"2023-05-11 13:00",5.17790964699323,"Approved","OW489"
"2023-05-11 14:00",5.16634714395129,"Approved","OW489"
"2023-05-11 15:00",5.16649462890934,"Approved","OW489"
"2023-05-11 16:00",5.30633212586739,"Approved","OW489"
"2023-05-11 17:00",5.35421357382544,"Approved","OW489"
"2023-05-11 18:00",5.28060101378349,"Approved","OW489"
"2023-05-11 19:00",5.29465038374154,"Approved","OW489"
"2023-05-11 20:00",5.43461773369959,"Approved","OW489"
"2023-05-11 21:00",5.31770306265765,"Approved","OW489"
"2023-05-11 22:00",5.2696624216157,"Approved","OW489"
"2023-05-11 23:00",5.22571378857375,"Approved","OW489"
"2023-05-12 00:00",5.2167951225318,"Approved","OW489"
"2023-05-12 01:00",5.19056247248985,"Approved","OW489"
"2023-05-12 02:00",5.1748018534479,"Approved","OW489"
"2023-05-12 03:00",5.16566121240595,"Approved","OW489"
"2023-05-12 04:00",5.20577462336401,"Approved","OW489"
"2023-05-12 05:00",5.28181600232206,"Approved","OW489"
"2023-05-12 06:00",5.22807935628011,"Approved","OW489"
"2023-05-12 07:00",5.21361274423816,"Approved","OW489"
"2023-05-12 08:00",5.23186211519621,"Approved","OW489"
"2023-05-12 09:00",5.29225954415426,"Approved","OW489"
"2023-05-12 10:00",5.24487894811231,"Approved","OW489"
"2023-05-12 11:00",5.21426838607037,"Approved","OW489"
"2023-05-12 12:00",5.24963584902842,"Approved","OW489"
"2023-05-12 13:00",5.21689931598647,"Approved","OW489"
"2023-05-12 14:00",5.26297077494452,"Approved","OW489"
"2023-05-12 15:00",5.26381825990257,"Approved","OW489"
"2023-05-12 16:00",5.24327373686062,"Approved","OW489"
"2023-05-12 17:00",5.22994519481867,"Approved","OW489"
"2023-05-12 18:00",5.23621865177673,"Approved","OW489"
"2023-05-12 19:00",5.23223405973478,"Approved","OW489"
"2023-05-12 20:00",5.25619142069283,"Approved","OW489"
"2023-05-12 21:00",5.28895477465088,"Approved","OW489"
"2023-05-12 22:00",5.23311213560893,"Approved","OW489"
"2023-05-12 23:00",5.21566150556698,"Approved","OW489"
"2023-05-13 00:00",5.19260887852503,"Approved","OW489"
"2023-05-13 01:00",5.22835625048308,"Approved","OW489"
"2023-05-13 02:00",5.21486167044114,"Approved","OW489"
"2023-05-13 03:00",5.19860504739919,"Approved","OW489"
"2023-05-13 04:00",5.18033044435724,"Approved","OW489"
"2023-05-13 05:00",5.16977382131529,"Approved","OW489"
"2023-05-13 06:00",5.16762518927334,"Approved","OW489"
"2023-05-13 07:00",5.20484459323139,"Approved","OW489"
"2023-05-13 08:00",5.18534601718945,"Approved","OW489"
"2023-05-13 09:00",5.2192254671475,"Approved","OW489"
"2023-05-13 10:00",5.22239492810555,"Approved","OW489"
"2023-05-13 11:00",5.2198563970636,"Approved","OW489"
"2023-05-13 12:00",5.23947591502165,"Approved","OW489"
"2023-05-13 13:00",5.2982754549797,"Approved","OW489"
"2023-05-13 14:00",5.35630296293775,"Approved","OW489"
"2023-05-13 15:00",5.31429051689581,"Approved","OW489"
"2023-05-13 16:00",5.43757007885386,"Approved","OW489"
"2023-05-13 17:00",5.44784165081191,"Approved","OW489"
"2023-05-13 18:00",5.41684518676996,"Approved","OW489"
"2023-05-13 19:00",5.40578068572801,"Approved","OW489"
"2023-05-13 20:00",5.49432606068606,"Approved","OW489"
"2023-05-13 21:00",5.43953547564411,"Approved","OW489"
"2023-05-13 22:00",5.44336287060217,"Approved","OW489"
"2023-05-13 23:00",5.39996429556022,"Approved","OW489"
"2023-05-14 00:00",5.37769768351827,"Approved","OW489"
"2023-05-14 01:00",5.36350709847632,"Approved","OW489"
"2023-05-14 02:00",5.35163860243437,"Approved","OW489"
"2023-05-14 03:00",5.35114002639242,"Approved","OW489"
"2023-05-14 04:00",5.34311148535047,"Approved","OW489"
"2023-05-14 05:00",5.39234498630853,"Approved","OW489"
"2023-05-14 06:00",5.41022243826658,"Approved","OW489"
"2023-05-14 07:00",5.43052985622463,"Approved","OW489"
"2023-05-14 08:00",5.43483938418268,"Approved","OW489"
"2023-05-14 09:00",5.52300696114073,"Approved","OW489"
"2023-05-14 10:00",5.52938452609878,"Approved","OW489"
"2023-05-14 11:00",5.47204610905683,"Approved","OW489"
"2023-05-14 12:00",5.49605563801489,"Approved","OW489"
"2023-05-14 13:00",5.43395917297294,"Approved","OW489"
"2023-05-14 14:00",5.42524872493099,"Approved","OW489"
"2023-05-14 15:00",5.48011430288904,"Approved","OW489"
"2023-05-14 16:00",5.71610585184709,"Approved","OW489"
"2023-05-14 17:00",5.99962137380514,"Approved","OW489"
"2023-05-14 18:00",5.66649482976319,"Approved","OW489"
"2023-05-14 19:00",5.55898826372125,"Approved","OW489"
"2023-05-14 20:00",5.5180815836793,"Approved","OW489"
"2023-05-14 21:00",5.55766891063735,"Approved","OW489"
"2023-05-14 22:00",5.5043983035954,"Approved","OW489"
"2023-05-14 23:00",5.49161570955345,"Approved","OW489"
"2023-05-15 00:00",5.4676031505115,"Approved","OW489"
"2023-05-15 01:00",5.44983254246955,"Approved","OW489"
"2023-05-15 02:00",5.57639201442761,"Approved","OW489"
"2023-05-15 03:00",5.53607545938566,"Approved","OW489"
"2023-05-15 04:00",5.52277089134371,"Approved","OW489"
"2023-05-15 05:00",5.55438230430176,"Approved","OW489"
"2023-05-15 06:00",5.52039771225981,"Approved","OW489"
"2023-05-15 07:00",5.49317516421786,"Approved","OW489"
"2023-05-15 08:00",5.52030866517591,"Approved","OW489"
"2023-05-15 09:00",5.62123817213396,"Approved","OW489"
"2023-05-15 10:00",5.53893759809202,"Approved","OW489"
"2023-05-15 11:00",5.51848708205007,"Approved","OW489"
"2023-05-15 12:00",5.55118861900812,"Approved","OW489"
"2023-05-15 13:00",5.60584010096617,"Approved","OW489"
"2023-05-15 14:00",5.51057360192422,"Approved","OW489"
"2023-05-15 15:00",5.48748113288227,"Approved","OW489"
"2023-05-15 16:00",5.50988466884032,"Approved","OW489"
"2023-05-15 17:00",5.46953415179838,"Approved","OW489"
"2023-05-15 18:00",5.46240960575643,"Approved","OW489"
"2023-05-15 19:00",5.61311502571448,"Approved","OW489"
"2023-05-15 20:00",5.53293231867253,"Approved","OW489"
"2023-05-15 21:00",5.52154350463058,"Approved","OW489"
"2023-05-15 22:00",5.49887289758863,"Approved","OW489"
"2023-05-15 23:00",5.47697420854669,"Approved","OW489"
"2023-05-16 00:00",5.46831336350474,"Approved","OW489"
"2023-05-16 01:00",5.47674264246279,"Approved","OW489"
"2023-05-16 02:00",5.46084794942084,"Approved","OW489"
"2023-05-16 03:00",5.62482528737889,"Approved","OW489"
"2023-05-16 04:00",5.50289663233694,"Approved","OW489"
"2023-05-16 05:00",5.49383401629499,"Approved","OW489"
"2023-05-16 06:00",5.48559525925304,"Approved","OW489"
"2023-05-16 07:00",5.4746966842111,"Approved","OW489"
"2023-05-16 08:00",5.47997813116915,"Approved","OW489"
"2023-05-16 09:00",5.5159354921272,"Approved","OW489"
"2023-05-16 10:00",5.49215289808525,"Approved","OW489"
"2023-05-16 11:00",5.4826383410433,"Approved","OW489"
"2023-05-16 12:00",5.48707184200135,"Approved","OW489"
"2023-05-16 13:00",5.4733093389594,"Approved","OW489"
"2023-05-16 14:00",5.45878290891746,"Approved","OW489"
"2023-05-16 15:00",5.45923050787551,"Approved","OW489"
"2023-05-16 16:00",5.49982605183356,"Approved","OW489"
"2023-05-16 17:00",5.52362359479161,"Approved","OW489"
"2023-05-16 18:00",5.49334910474966,"Approved","OW489"
"2023-05-16 19:00",5.65177849770771,"Approved","OW489"
"2023-05-16 20:00",5.56109179566576,"Approved","OW489"
"2023-05-16 21:00",5.53416114262382,"Approved","OW489"
"2023-05-16 22:00",5.52153859458187,"Approved","OW489"
"2023-05-16 23:00",5.49735200553992,"Approved","OW489"
"2023-05-17 00:00",5.49036153349797,"Approved","OW489"
"2023-05-17 01:00",5.47548693145602,"Approved","OW489"
"2023-05-17 02:00",5.46672631241407,"Approved","OW489"
"2023-05-17 03:00",5.45873373037213,"Approved","OW489"
"2023-05-17 04:00",5.49009320233018,"Approved","OW489"
"2023-05-17 05:00",5.53417464928823,"Approved","OW489"
"2023-05-17 06:00",5.51270004624628,"Approved","OW489"
"2023-05-17 07:00",5.53476151620433,"Approved","OW489"
"2023-05-17 08:00",5.48938702716238,"Approved","OW489"
"2023-05-17 09:00",5.59642252612043,"Approved","OW489"
"2023-05-17 10:00",5.51692006807848,"Approved","OW489"
"2023-05-17 11:00",5.52743359203654,"Approved","OW489"
"2023-05-17 12:00",5.50597519799459,"Approved","OW489"
"2023-05-17 13:00",5.51024477195264,"Approved","OW489"
"2023-05-17 14:00",5.50962633291069,"Approved","OW489"
"2023-05-17 15:00",5.48675994786874,"Approved","OW489"
"2023-05-17 16:00",5.47422153082679,"Approved","OW489"
"2023-05-17 17:00",5.50978311378484,"Approved","OW489"
"2023-05-17 18:00",5.4756806557429,"Approved","OW489"
"2023-05-17 19:00",5.53715211470095,"Approved","OW489"
"2023-05-17 20:00",5.490845547659,"Approved","OW489"
"2023-05-17 21:00",5.57402288561705,"Approved","OW489"
"2023-05-17 22:00",5.5299802465751,"Approved","OW489"
"2023-05-17 23:00",5.49582961653315,"Approved","OW489"
"2023-05-18 00:00",5.4765170574912,"Approved","OW489"
"2023-05-18 01:00",5.46466043444926,"Approved","OW489"
"2023-05-18 02:00",5.47868383340731,"Approved","OW489"
"2023-05-18 03:00",5.46109524636536,"Approved","OW489"
"2023-05-18 04:00",5.44648268732341,"Approved","OW489"
"2023-05-18 05:00",5.45429609828146,"Approved","OW489"
"2023-05-18 06:00",5.46899341323951,"Approved","OW489"
"2023-05-18 07:00",5.46085876519756,"Approved","OW489"
"2023-05-18 08:00",5.45295419615562,"Approved","OW489"
"2023-05-18 09:00",5.49596361211367,"Approved","OW489"
"2023-05-18 10:00",5.49798301607172,"Approved","OW489"
"2023-05-18 11:00",5.64155847002977,"Approved","OW489"
"2023-05-18 12:00",5.49788786298782,"Approved","OW489"
"2023-05-18 13:00",5.50953523494587,"Approved","OW489"
"2023-05-18 14:00",5.48685863390392,"Approved","OW489"
"2023-05-18 15:00",5.46826405386198,"Approved","OW489"
"2023-05-18 16:00",5.46391753282003,"Approved","OW489"
"2023-05-18 17:00",5.53071096677808,"Approved","OW489"
"2023-05-18 18:00",5.92226433173613,"Approved","OW489"
"2023-05-18 19:00",5.97174966169418,"Approved","OW489"
"2023-05-18 20:00",5.79130890665223,"Approved","OW489"
"2023-05-18 21:00",5.70558413361028,"Approved","OW489"
"2023-05-18 22:00",5.63303949756834,"Approved","OW489"
"2023-05-18 23:00",5.60092282852639,"Approved","OW489"
"2023-05-19 00:00",5.57731814648444,"Approved","OW489"
"2023-05-19 01:00",5.56566551844249,"Approved","OW489"
"2023-05-19 02:00",5.54860090440054,"Approved","OW489"
"2023-05-19 03:00",5.58438823135859,"Approved","OW489"
"2023-05-19 04:00",5.63164759031664,"Approved","OW489"
"2023-05-19 05:00",5.6559069492747,"Approved","OW489"
"2023-05-19 06:00",5.62617629623275,"Approved","OW489"
"2023-05-19 07:00",5.6658336571908,"Approved","OW489"
"2023-05-19 08:00",5.64974107514885,"Approved","OW489"
"2023-05-19 09:00",5.6571484921069,"Approved","OW489"
"2023-05-19 10:00",5.60994592106495,"Approved","OW489"
"2023-05-19 11:00",5.630827369023,"Approved","OW489"
"2023-05-19 12:00",5.65007485398105,"Approved","OW489"
"2023-05-19 13:00",5.68541834393911,"Approved","OW489"
"2023-05-19 14:00",5.62627981389716,"Approved","OW489"
"2023-05-19 15:00",5.65017336085521,"Approved","OW489"
"2023-05-19 16:00",5.67357489881326,"Approved","OW489"
"2023-05-19 17:00",5.68909841177131,"Approved","OW489"
"2023-05-19 18:00",5.61962392172936,"Approved","OW489"
"2023-05-19 19:00",5.65579937568742,"Approved","OW489"
"2023-05-19 20:00",5.66913875764547,"Approved","OW489"
"2023-05-19 21:00",5.63974006860352,"Approved","OW489"
"2023-05-19 22:00",5.61433150456157,"Approved","OW489"
"2023-05-19 23:00",5.59225290551962,"Approved","OW489"
"2023-05-20 00:00",5.58861825747767,"Approved","OW489"
"2023-05-20 01:00",5.57943166843572,"Approved","OW489"
"2023-05-20 02:00",5.56938103839378,"Approved","OW489"
"2023-05-20 03:00",5.59401242935183,"Approved","OW489"
"2023-05-20 04:00",5.58833982430988,"Approved","OW489"
"2023-05-20 05:00",5.57468519826793,"Approved","OW489"
"2023-05-20 06:00",5.58114655522598,"Approved","OW489"
"2023-05-20 07:00",5.65510791118403,"Approved","OW489"
"2023-05-20 08:00",5.62796938114208,"Approved","OW489"
"2023-05-20 09:00",5.69102286010014,"Approved","OW489"
"2023-05-20 10:00",5.60559831405819,"Approved","OW489"
"2023-05-20 11:00",5.58977376801624,"Approved","OW489"
"2023-05-20 12:00",5.57393723497429,"Approved","OW489"
"2023-05-20 13:00",5.57119071393234,"Approved","OW489"
"2023-05-20 14:00",5.59503420389039,"Approved","OW489"
"2023-05-20 15:00",5.64333174684844,"Approved","OW489"
"2023-05-20 16:00",5.6435312868065,"Approved","OW489"
"2023-05-20 17:00",5.58195879476455,"Approved","OW489"
"2023-05-20 18:00",5.5560382447226,"Approved","OW489"
"2023-05-20 19:00",5.56716364168065,"Approved","OW489"
"2023-05-20 20:00",5.5950150096387,"Approved","OW489"
"2023-05-20 21:00",5.63788235859675,"Approved","OW489"
"2023-05-20 22:00",5.6053437155548,"Approved","OW489"
"2023-05-20 23:00",5.58908109851286,"Approved","OW489"
"2023-05-21 00:00",5.57214245547091,"Approved","OW489"
"2023-05-21 01:00",5.55995986142896,"Approved","OW489"
"2023-05-21 02:00",5.54996927738701,"Approved","OW489"
"2023-05-21 03:00",5.54249067834506,"Approved","OW489"
"2023-05-21 04:00",5.59082406730311,"Approved","OW489"
"2023-05-21 05:00",5.62926344826116,"Approved","OW489"
"2023-05-21 06:00",5.59541082021922,"Approved","OW489"
"2023-05-21 07:00",5.57392822717727,"Approved","OW489"
"2023-05-21 08:00",5.57664763113532,"Approved","OW489"
"2023-05-21 09:00",5.66430898709337,"Approved","OW489"
"2023-05-21 10:00",6.01745647305142,"Approved","OW489"
"2023-05-21 11:00",5.98791594500947,"Approved","OW489"
"2023-05-21 12:00",5.91217341896752,"Approved","OW489"
"2023-05-21 13:00",5.89535486592558,"Approved","OW489"
"2023-05-21 14:00",5.87834030888363,"Approved","OW489"
"2023-05-21 15:00",5.88832774884168,"Approved","OW489"
"2023-05-21 16:00",6.22883117179973,"Approved","OW489"
"2023-05-21 17:00",6.01481062075778,"Approved","OW489"
"2023-05-21 18:00",5.95651204471583,"Approved","OW489"
"2023-05-21 19:00",5.94894343567388,"Approved","OW489"
"2023-05-21 20:00",5.93977482563194,"Approved","OW489"
"2023-05-21 21:00",5.95319822558999,"Approved","OW489"
"2023-05-21 22:00",5.95710764054804,"Approved","OW489"
"2023-05-21 23:00",5.93919707850609,"Approved","OW489"
"2023-05-22 00:00",5.92090249846414,"Approved","OW489"
"2023-05-22 01:00",5.93431590942219,"Approved","OW489"
"2023-05-22 02:00",5.92130534738024,"Approved","OW489"
"2023-05-22 03:00",5.9158267493383,"Approved","OW489"
"2023-05-22 04:00",5.91860420129635,"Approved","OW489"
"2023-05-22 05:00",5.9086996322544,"Approved","OW489"
"2023-05-22 06:00",5.91298107921245,"Approved","OW489"
"2023-05-22 07:00",5.9158064761705,"Approved","OW489"
"2023-05-22 08:00",5.91021988712855,"Approved","OW489"
"2023-05-22 09:00",5.9559013340866,"Approved","OW489"
"2023-05-22 10:00",5.98398877504466,"Approved","OW489"
"2023-05-22 11:00",5.92422615800271,"Approved","OW489"
"2023-05-22 12:00",5.89442758296076,"Approved","OW489"
"2023-05-22 13:00",5.88811502291881,"Approved","OW489"
"2023-05-22 14:00",5.81267849087686,"Approved","OW489"
"2023-05-22 15:00",5.80239589683491,"Approved","OW489"
"2023-05-22 16:00",5.83707135079296,"Approved","OW489"
"2023-05-22 17:00",5.87635479575101,"Approved","OW489"
"2023-05-22 18:00",5.98845422270907,"Approved","OW489"
"2023-05-22 19:00",6.10177562366712,"Approved","OW489"
"2023-05-22 20:00",5.91927704862517,"Approved","OW489"
"2023-05-22 21:00",5.88528446658322,"Approved","OW489"
"2023-05-22 22:00",5.84031785454127,"Approved","OW489"
"2023-05-22 23:00",5.82286123149932,"Approved","OW489"
"2023-05-23 00:00",5.79335866045737,"Approved","OW489"
"2023-05-23 01:00",5.78865209341543,"Approved","OW489"
"2023-05-23 02:00",5.76641755837348,"Approved","OW489"
"2023-05-23 03:00",5.74912697433153,"Approved","OW489"
"2023-05-23 04:00",5.77494038528958,"Approved","OW489"
"2023-05-23 05:00",5.81766378424763,"Approved","OW489"
"2023-05-23 06:00",5.78544323420568,"Approved","OW489"
"2023-05-23 07:00",5.79050070816374,"Approved","OW489"
"2023-05-23 08:00",5.76866018012179,"Approved","OW489"
"2023-05-23 09:00",5.79511365907984,"Approved","OW489"
"2023-05-23 10:00",5.77740709203789,"Approved","OW489"
"2023-05-23 11:00",5.76588454399594,"Approved","OW489"
"2023-05-23 12:00",5.91246998695399,"Approved","OW489"
"2023-05-23 13:00",5.82588739291204,"Approved","OW489"
"2023-05-23 14:00",5.8595568538701,"Approved","OW489"
"2023-05-23 15:00",5.80420034382815,"Approved","OW489"
"2023-05-23 16:00",5.7635498267862,"Approved","OW489"
"2023-05-23 17:00",5.84612128574425,"Approved","OW489"
"2023-05-23 18:00",5.9438027327023,"Approved","OW489"
"2023-05-23 19:00",5.85498218166035,"Approved","OW489"
"2023-05-23 20:00",5.8138935946184,"Approved","OW489"